TITAN 3A DEB (TRUSS), 1000

Orbit data source: Space-Track

TITAN 3A DEB (TRUSS), 1000 is space debris in LEO originally from a launch on Thu, 11 Feb 1965 UTC launched from the Air Force Eastern Test Range (AFETR). Debris objects in space refer to the collection of defunct objects orbiting the Earth. Examples of debris include non-operational satellites, rocket bodies, and fragments generated from explosions, collisions, or faulty payload assembly.

Loading next visibility...
Identifier
1000, 1965-008B
Orbit
LEO
Country
Flag of USUS
Related business
Manufacturer
Martin Marietta
Mission
Spacecraft
Bus & Motor
TRANSTAGE, Unknown motor
Mass
1,950 kg wet, 1,950 kg dry
Launch date (UTC)
1965-02-11 (61 years ago)
Launch vehicle
Unknown
Launch site
Air Force Eastern Test Range (AFETR)
Object type
Payload
Rocket body
Debris
Shape & HBR
Unknown
Radar Cross Section
Large (>1 m²)

Expand to show TLE details & history
Last TLE update: 10 hours ago

TLE from 10 hours ago
0 TITAN 3A DEB (TRUSS)
1 01000U 65008B   25308.59978221  .00000008  00000-0 -11402-3 0  9991
2 01000  32.1379 148.4012 0012071 282.3031  77.6114  9.88891434195126
Epoch: 2025-11-04T14:23Z
TLE epoch observation values (Epoch: 2025-11-04T14:23:41.182Z)
Latitude
-0.00005°
Longitude
-111.60496°
Altitude
2,787.057 km
Speed
6.598 km/s
True Right ascension
09h 53m 36s
True Declination
0° 00' 00"
Sunlit
Object was in daylight at epoch
Visualization orbit readout
Latitude
Unknown
Longitude
Unknown
Altitude
Unknown
Speed
Unknown
Apparent Right ascension
Unknown
Apparent Declination
Unknown
Sunlit
N/A
Visualization observer readout
Local Sidereal Time
19:57:29
Azimuth
Unknown
Elevation
Unknown
Doppler factor
Unknown
Orbital elements
Apogee altitude
2,804.299 km
Perigee altitude
2,782.158 km
Semi-major axis
9,171.365 km
Eccentricity
0.00121
Inclination
32.1379°
RAAN
148.4012°
Arg. of periapsis
282.3031°
True anomaly
77.74655°
Mean anomaly
77.6114°
Eccentric anomaly
77.67897°
Mean motion
2.47111 °/min
Orbital period
145.68 mins
BSTAR
-0.00011402
Loading maneuver chart data...
Computing Atmospheric mass density...
Loading historical data...
Loading historical data...
Loading historical data...
Loading historical data...
Loading historical data...
Loading historical data...
Loading historical data...
Other satellites on launch #8 in the year 1965 (1965-02-11 UTC)

Documentation

Showing up to 5 results
|